Weather History for KSDM - April, 2013

Change the Weather History Date:

Sunday, April 7, 2013

  Actual Average Record
Temperature  
Mean Temperature 62 °F -  
Max Temperature 69 °F 63 °F 84 °F (2014)
Min Temperature 55 °F 46 °F 45 °F (1955)
Degree Days  
Heating Degree Days 4    
Growing Degree Days 12 (Base 50)    
Moisture  
Dew Point 52 °F    
Average Humidity 78    
Maximum Humidity 94    
Minimum Humidity 56    
Precipitation  
Precipitation 0.00 in - - ()
Sea Level Pressure  
Sea Level Pressure 29.91 in    
Wind  
Wind Speed 4 mph (SW)    
Max Wind Speed 10 mph    
Max Gust Speed 16 mph    
Visibility 10 miles    
Events      
Averages and records for this station are not official NWS values.
T = Trace of Precipitation, MM = Missing Value Source: NWS Daily Summary

Daily Weather History Graph

Daily Weather History Graph

Search for Another Location

Airport or City:

Trip Planner

Search our weather history database for the weather conditions in past years. The results will help you decide how hot, cold, wet, or windy it might be!

Date:

Astronomy

Apr. 07, 2013 Rise Set
Actual Time 6:27 AM PDT 7:12 PM PDT
Civil Twilight 6:02 AM PDT 7:37 PM PDT
Nautical Twilight 5:33 AM PDT 8:06 PM PDT
Astronomical Twilight 5:03 AM PDT 8:36 PM PDT
Moon 4:39 AM PDT (4/7) 4:55 PM PDT (4/7)
Length of Visible Light 13h 34m
Length of Day
12h 44m
Waning Crescent, 7% of the Moon is Illuminated
Apr 7
Waning Crescent
Apr 10
New
Apr 18
First Quarter
Apr 25
Full
May 2
Last Quarter

Hourly Weather History & Observations

Time (PDT) Temp. Dew Point Humidity Pressure Visibility Wind Dir Wind Speed Gust Speed Precip Events Conditions
12:53 AM 57.0 °F 53.1 °F 87% 29.99 in 10.0 mi Calm Calm - N/A   Overcast
1:53 AM 57.0 °F 52.0 °F 83% 29.96 in 9.0 mi SSW 4.6 mph - N/A   Overcast
2:53 AM 57.0 °F 52.0 °F 83% 29.94 in 8.0 mi SSW 4.6 mph - N/A   Overcast
3:42 AM 55.4 °F 51.8 °F 88% 29.94 in 10.0 mi SSW 5.8 mph - N/A   Overcast
3:53 AM 55.9 °F 51.1 °F 84% 29.94 in 10.0 mi SSW 6.9 mph - N/A   Overcast
4:53 AM 55.9 °F 51.1 °F 84% 29.93 in 10.0 mi SSW 5.8 mph - N/A   Overcast
5:53 AM 55.9 °F 51.1 °F 84% 29.94 in 10.0 mi SSW 5.8 mph - N/A   Overcast
6:53 AM 55.9 °F 51.1 °F 84% 29.94 in 9.0 mi SSW 4.6 mph - N/A   Overcast
7:53 AM 57.0 °F 51.1 °F 81% 29.95 in 8.0 mi SW 3.5 mph - N/A   Overcast
8:53 AM 59.0 °F 51.1 °F 75% 29.96 in 7.0 mi SE 3.5 mph - N/A   Overcast
9:53 AM 60.1 °F 52.0 °F 75% 29.97 in 8.0 mi Calm Calm - N/A   Overcast
10:38 AM 62.6 °F 51.8 °F 68% 29.97 in 8.0 mi Calm Calm - N/A   Scattered Clouds
10:53 AM 64.0 °F 52.0 °F 65% 29.96 in 10.0 mi Variable 3.5 mph - N/A   Scattered Clouds
11:53 AM 68.0 °F 52.0 °F 56% 29.94 in 10.0 mi Variable 5.8 mph - N/A   Partly Cloudy
12:53 PM 66.9 °F 52.0 °F 59% 29.93 in 10.0 mi Variable 5.8 mph 16.1 mph N/A   Partly Cloudy
1:53 PM 66.9 °F 52.0 °F 59% 29.91 in 10.0 mi West 8.1 mph - N/A   Clear
2:53 PM 68.0 °F 53.1 °F 59% 29.90 in 10.0 mi WNW 8.1 mph - N/A   Clear
3:53 PM 66.0 °F 52.0 °F 60% 29.88 in 10.0 mi WSW 5.8 mph - N/A   Clear
4:53 PM 63.0 °F 52.0 °F 67% 29.88 in 10.0 mi West 10.4 mph - N/A   Clear
5:53 PM 61.0 °F 53.1 °F 75% 29.87 in 10.0 mi WSW 6.9 mph - N/A   Clear
6:53 PM 59.0 °F 53.1 °F 81% 29.87 in 10.0 mi West 4.6 mph - N/A   Partly Cloudy
7:53 PM 57.0 °F 53.1 °F 87% 29.87 in 10.0 mi West 4.6 mph - N/A   Scattered Clouds
8:07 PM 55.4 °F 53.6 °F 94% 29.86 in 10.0 mi SSW 3.5 mph - N/A   Mostly Cloudy
8:36 PM 55.4 °F 53.6 °F 94% 29.87 in 10.0 mi WSW 3.5 mph - N/A   Scattered Clouds
8:53 PM 55.9 °F 53.1 °F 90% 29.86 in 10.0 mi Calm Calm - N/A   Partly Cloudy
9:31 PM 57.2 °F 53.6 °F 88% 29.89 in 10.0 mi Calm Calm - N/A   Mostly Cloudy
9:53 PM 57.0 °F 54.0 °F 89% 29.87 in 10.0 mi Variable 4.6 mph - N/A   Overcast
10:53 PM 57.0 °F 53.1 °F 87% 29.86 in 10.0 mi SSW 5.8 mph - N/A   Overcast
11:53 PM 57.9 °F 53.1 °F 84% 29.85 in 10.0 mi SSW 8.1 mph - N/A   Overcast